Regional Weather Roundup
Issued by NWS New Orleans/Baton Rouge, LA

Home | Current Version | Previous Version | Text Only | Print | Product List | Glossary On
Versions: 1 2 3 4 5 6 7 8 9 10 11 12 13 14 15 16 17 18 19 20 21 22 23 24 25 26 27 28 29 30 31 32 33 34 35 36 37 38 39 40 41 42 43 44 45 46 47 48 49 50
000
ASUS44 KLIX 272310
RWRLIX
NEW ORLEANS REGIONAL WEATHER ROUNDUP
NATIONAL WEATHER SERVICE NEW ORLEANS LA
600 PM CDT WED AUG 27 2014

NOTE: "FAIR" INDICATES FEW OR NO CLOUDS BELOW 12,000 FEET WITH NO
      SIGNIFICANT WEATHER AND/OR OBSTRUCTIONS TO VISIBILITY.
      SKY/WX - SKY CONDITION AND SIGNIFICANT WEATHER.
      TMP - AIR TEMPERATURE.     DP    - DEWPOINT TEMPERATURE.
      RH  - RELATIVE HUMIDITY.   PRES  - PRESSURE.
      HI  - HEAT INDEX.          WCI   - WIND CHILL INDEX.

*  THESE STATIONS ARE NOT NWS OR FAA STATIONS AND ARE NOT UNDER
   NWS QUALITY CONTROL.

LAZ038-040-048-061>063-065>067-069-280000-
SOUTHEAST LOUISIANA

CITY           SKY/WX    TMP DP  RH WIND       PRES   REMARKS
N.O. AUDUBON     N/A     85  76  74 MISG        N/A
N.O. INTL ARPT CLOUDY    85  73  67 SE7       29.97F
N.O. LAKEFRONT CLOUDY    86  75  69 SE13      29.96F HX  95
N.O. DOWNTOWN* CLOUDY    84  72  65 SE7       29.97F
SLIDELL        CLOUDY    81  76  84 SE3       29.97F
BATON ROUGE    MOSUNNY   89  72  56 E6        29.96F HX  96
BOOTHVILLE     MOSUNNY   85  75  72 SE12      29.97F
BELLE CHASSE   CLOUDY    84  77  79 E7        29.96F
BOGALUSA*      MOCLDY    85  74  70 SW5       29.99R
GALLIANO*      NOT AVBL
NEW ROADS*       N/A     89  74  62 E5        29.97R HX  97
GONZALES*        N/A     83  76  80 CALM      29.97S
HAMMOND*       CLOUDY    88  72  58 SE8       29.99S
HOUMA*         NOT AVBL
PORT FOURCHON* CLEAR     84  73  70 NE15      29.97F

$$

MSZ070-080>082-280000-
SOUTHERN MISSISSIPPI

CITY           SKY/WX    TMP DP  RH WIND       PRES   REMARKS
MCCOMB         MOSUNNY   90  67  46 E5        29.98S
GULFPORT       PTSUNNY   87  73  62 SE12      29.97S
BILOXI         PTSUNNY   87  72  62 S8        29.98S
PASCAGOULA     PTSUNNY   85  72  65 SE10      29.98S
STENNIS ARPT*  MOSUNNY  N/A N/A N/A S8        29.98S

$$

COASTAL OBSERVATIONS
LAKE AND NEARSHORE STATIONS

STATION/POSITION TIME  TEMP    WIND        PRES    WAVE
                       AIR SEA DIR/SP/G            HT/PER
                 (UTC) (F)     (DEG/KT/KT) (MB)    (FT/S)
PASCAGOULA       2300   88     150/  7/ 12 1014.6
WAVELAND YACHT   2300   85     160/ 12/ 14 1014.6
GRAND ISLE       2300   78 84  120/  7/  8 1015.8
SOUTHWEST PASS   2300   86 89  110/ 18/ 19 1014.8
NEW CANAL        2300   87 85  100/  3/  8 1015.1
SHELL BEACH      2300   85 82  120/ 16/ 18 1014.7

OFFSHORE STATIONS

STATION/POSITION TIME  TEMP    WIND        PRES    WAVE
                       AIR SEA DIR/SP/G            HT/PER
                 (UTC) (F)     (DEG/KT/KT) (MB)    (FT/S)
64 S DAUPHIN ISL 2158   85 86  110/ 12/ 14 1014.9

$$



USA.gov is the U.S. government's official web portal to all federal, state and local government web resources and services.